Weather History for KRDU - December, 2012

Change the Weather History Date:

Sunday, December 16, 2012

  Actual Average Record
Temperature  
Mean Temperature 53 °F 43 °F  
Max Temperature 58 °F 53 °F 77 °F (1971)
Min Temperature 48 °F 33 °F 7 °F (1958)
Degree Days  
Heating Degree Days 12 22  
Month to date heating degree days 190 319  
Since 1 July heating degree days 884 900  
Cooling Degree Days 0 0  
Month to date cooling degree days 3 0  
Year to date cooling degree days 1874 1728  
Growing Degree Days 2 (Base 50)    
Moisture  
Dew Point 48 °F    
Average Humidity 74    
Maximum Humidity 93    
Minimum Humidity 54    
Precipitation  
Precipitation 0.09 in 0.09 in 2.12 in (1893)
Month to date precipitation 0.55 1.58  
Year to date precipitation 38.40 41.85  
Snow  
Snow 0.00 in 0.10 in 5.50 in (1942)
Month to date snowfall 0.0 0.2  
Since 1 July snowfall 0.0 0.3  
Snow Depth 0.00 in    
Sea Level Pressure  
Sea Level Pressure 30.01 in    
Wind  
Wind Speed 6 mph (SSW)    
Max Wind Speed 16 mph    
Max Gust Speed 18 mph    
Visibility 9 miles    
Events Rain , Thunderstorm    
T = Trace of Precipitation, MM = Missing Value Source: NWS Daily Summary

Daily Weather History Graph

Daily Weather History Graph

Search for Another Location

Airport or City:

Trip Planner

Search our weather history database for the weather conditions in past years. The results will help you decide how hot, cold, wet, or windy it might be!

Date:

Astronomy

Dec. 16, 2012 Rise Set
Actual Time 7:19 AM EST 5:03 PM EST
Civil Twilight 6:50 AM EST 5:31 PM EST
Nautical Twilight 6:18 AM EST 6:03 PM EST
Astronomical Twilight 5:47 AM EST 6:34 PM EST
Moon 9:56 AM EST (12/16) 9:08 PM EST (12/16)
Length of Visible Light 10h 41m
Length of Day
9h 43m
Waxing Crescent, 16% of the Moon is Illuminated
Dec 16
Waxing Crescent
Dec 20
First Quarter
Dec 28
Full
Jan 4
Last Quarter
Jan 11
New

Hourly Weather History & Observations

Time (EST) Temp. Dew Point Humidity Pressure Visibility Wind Dir Wind Speed Gust Speed Precip Events Conditions
12:51 AM 52.0 °F 36.0 °F 54% 30.07 in 10.0 mi SE 4.6 mph - N/A   Overcast
1:51 AM 52.0 °F 37.9 °F 59% 30.07 in 10.0 mi South 3.5 mph - N/A   Overcast
2:35 AM 51.8 °F 41.0 °F 67% 30.05 in 10.0 mi South 3.5 mph - 0.00 in   Overcast
2:51 AM 51.1 °F 42.1 °F 71% 30.06 in 10.0 mi Calm Calm - 0.00 in   Overcast
3:16 AM 50.0 °F 42.8 °F 76% 30.06 in 10.0 mi Calm Calm - N/A Thunderstorm Thunderstorm
3:51 AM 50.0 °F 43.0 °F 77% 30.07 in 10.0 mi Calm Calm - 0.00 in Rain Light Rain
4:51 AM 48.0 °F 45.0 °F 89% 30.07 in 10.0 mi Calm Calm - 0.02 in Rain Light Rain
5:51 AM 48.2 °F 44.6 °F 87% 30.06 in 10.0 mi Calm Calm - N/A   Overcast
6:51 AM 48.9 °F 45.0 °F 86% 30.06 in 10.0 mi Calm Calm - N/A   Mostly Cloudy
7:51 AM 50.0 °F 45.0 °F 83% 30.07 in 10.0 mi Calm Calm - N/A   Overcast
8:30 AM 50.0 °F 46.4 °F 87% 30.07 in 10.0 mi South 3.5 mph - N/A   Mostly Cloudy
8:51 AM 51.1 °F 46.9 °F 86% 30.08 in 10.0 mi Calm Calm - N/A   Mostly Cloudy
9:51 AM 54.0 °F 50.0 °F 86% 30.06 in 10.0 mi SW 4.6 mph - N/A   Mostly Cloudy
10:51 AM 55.0 °F 51.1 °F 86% 30.04 in 10.0 mi SSW 5.8 mph - N/A   Mostly Cloudy
11:51 AM 57.0 °F 52.0 °F 83% 30.03 in 10.0 mi SW 9.2 mph - N/A   Mostly Cloudy
12:51 PM 57.0 °F 51.1 °F 81% 29.99 in 10.0 mi SSW 8.1 mph - 0.00 in   Overcast
1:51 PM 57.0 °F 52.0 °F 83% 29.96 in 10.0 mi SW 12.7 mph - N/A   Overcast
2:51 PM 57.0 °F 52.0 °F 83% 29.96 in 9.0 mi WSW 9.2 mph - 0.00 in   Overcast
3:51 PM 57.0 °F 53.1 °F 87% 29.96 in 8.0 mi SW 6.9 mph - N/A   Overcast
4:51 PM 55.9 °F 53.1 °F 90% 29.95 in 8.0 mi SW 6.9 mph - N/A   Overcast
5:51 PM 57.0 °F 54.0 °F 89% 29.95 in 7.0 mi SSW 8.1 mph - 0.02 in   Overcast
6:51 PM 55.9 °F 54.0 °F 93% 29.94 in 7.0 mi SSW 9.2 mph - N/A   Overcast
7:42 PM 55.4 °F 53.6 °F 94% 29.94 in 2.5 mi SW 12.7 mph - N/A   Overcast
7:51 PM 55.9 °F 54.0 °F 93% 29.94 in 2.5 mi SW 11.5 mph - N/A   Overcast
8:18 PM 55.4 °F 53.6 °F 94% 29.93 in 8.0 mi SW 10.4 mph - N/A   Overcast
8:51 PM 55.9 °F 54.0 °F 93% 29.93 in 9.0 mi SW 11.5 mph - N/A   Overcast
9:51 PM 55.9 °F 54.0 °F 93% 29.91 in 7.0 mi SW 8.1 mph - 0.00 in   Overcast
10:51 PM 55.9 °F 54.0 °F 93% 29.92 in 5.0 mi SW 8.1 mph - 0.01 in Rain Light Rain
11:51 PM 55.9 °F 54.0 °F 93% 29.91 in 5.0 mi SW 6.9 mph - 0.04 in Rain Light Rain